Location: Chin
(49.7667°N, 112.4500°W)
Time: 17:49:46
(UTC+00:00)

Envisat - Visible Passes

Search period start: 27 November 2021 00:00
Search period end: 07 December 2021 00:00
Orbit: 764 x 766 km, 98.2° (Epoch: 26 November)

Date Brightness Start Highest point End Pass type
(mag) Time Alt. Az. Time Alt. Az. Time Alt. Az.
27 Nov 6.1 01:12:42 10° WSW 01:15:12 14° W 01:17:42 10° NW visible
27 Nov 5.2 11:35:15 10° NE 11:39:20 24° E 11:43:22 10° SE visible
27 Nov 3.0 13:13:42 10° N 13:18:41 55° WNW 13:23:37 10° SW visible
28 Nov 5.3 00:33:36 10° SSW 00:37:54 27° W 00:42:12 10° NW visible
28 Nov 6.1 11:00:18 10° ENE 11:01:57 11° E 11:03:38 10° ESE visible
28 Nov 3.1 12:36:45 10° NNE 12:41:52 76° ESE 12:46:56 10° S visible
28 Nov 4.3 14:16:47 10° NNW 14:20:20 19° WNW 14:23:52 10° WSW visible
29 Nov 4.4 12:00:07 10° NNE 12:04:51 38° E 12:09:34 10° SSE visible
29 Nov 3.5 13:39:15 10° N 13:43:50 35° WNW 13:48:24 10° SW visible
30 Nov 5.9 01:00:14 10° SW 01:03:30 17° W 01:06:46 10° NW visible
30 Nov 5.5 11:24:02 10° NE 11:27:39 19° E 11:31:14 10° SE visible
30 Nov 2.9 13:02:06 10° N 13:07:10 68° WNW 13:12:11 10° SSW visible
01 Dec 4.9 00:21:40 10° SSW 00:26:15 33° W 00:30:51 10° NNW visible
01 Dec 3.4 12:25:14 10° NNE 12:30:17 62° ESE 12:35:19 10° S visible
01 Dec 4.1 14:04:58 10° N 14:08:54 23° WNW 14:12:50 10° WSW visible
02 Dec 4.7 11:48:43 10° NNE 11:53:13 31° E 11:57:41 10° SSE visible
02 Dec 3.3 13:27:35 10° N 13:32:22 42° WNW 13:37:07 10° SW visible
03 Dec 5.7 00:48:01 10° SW 00:51:47 21° W 00:55:37 10° NW visible
03 Dec 5.7 11:12:57 10° NE 11:15:57 15° E 11:18:56 10° ESE visible
03 Dec 2.9 12:50:30 10° NNE 12:55:37 83° WNW 13:00:42 10° SSW visible
03 Dec 4.5 14:31:00 10° NNW 14:33:53 15° NW 14:36:46 10° W visible
04 Dec 4.5 00:09:50 10° SSW 00:14:36 41° W 00:19:26 10° NNW visible
04 Dec 3.8 12:13:44 10° NNE 12:18:42 50° E 12:23:37 10° S visible
04 Dec 3.8 13:53:13 10° N 13:57:28 27° WNW 14:01:42 10° WSW visible
05 Dec 6.1 01:15:16 10° WSW 01:17:27 13° W 01:19:40 10° WNW visible
05 Dec 5.1 11:37:23 10° NE 11:41:34 25° E 11:45:43 10° SSE visible
05 Dec 3.1 13:15:56 10° N 13:20:52 52° WNW 13:25:46 10° SW visible
06 Dec 5.4 00:35:56 10° SSW 00:40:07 26° W 00:44:21 10° NW visible
06 Dec 6.0 11:02:09 10° ENE 11:04:13 12° E 11:06:17 10° ESE visible
06 Dec 3.0 12:38:57 10° NNE 12:44:04 81° ESE 12:49:09 10° SSW visible
06 Dec 4.3 14:19:05 10° NNW 14:22:29 18° WNW 14:25:53 10° W visible
